Location: Bennemühlen
(52.5740°N, 9.7135°E)
Time: 00:54:40
(UTC+00:00)

Cosmos 2360 Rocket - Pass Details

Date: 19 May 2025
Orbit: 834 x 842 km, 71.0° (Epoch: 23 June)

Event Time Altitude Azimuth Distance (km) Brightness Sun altitude
Rises 23:08:36 0° 327° (NNW) 3,395 6.4 -17.4°
Reaches altitude 10° 23:11:03 10° 326° (NW) 2,456 5.5 -17.4°
Maximum altitude 23:16:40 72° 244° (WSW) 880 2.2 -17.4°
Enters shadow 23:19:38 29° 165° (SSE) 1,504 2.9 -17.4°
